Content
SEND FEEDBACK

Daily
Averages
Monthly
Summary
Canada

QUEBEC CITY, QUEBEC


Home > North America > Canada > Quebec
Elevation: 239 feet     Latitude: 46 48N     Longitude: 071 23W

WEATHER
 
SELECT A DAY
Number of Records: 192,044;   Date Range: 6/30/96 - 7/27/14
 
SHARE

PRINT THIS DATA

[ ← Previous Day ]
WEATHER ALMANAC - MARCH 17, 2013
[ Next Day → ]
[ °C ]   °F
Weather ElementAverageHighLow
Temperature13.6 °F17.6 °F (3:00 pm)8 °F (11:00 pm)
Dewpoint-0.6 °F7 °F (8:00 am)-11.2 °F (11:00 pm)
Humidity51.6 %81 % (2:00 am)21 % (5:00 pm)
Barometer29.12 in30.32 in (11:00 pm) (7:00 pm)
Wind Speed9.9 mph19.6 mph (12:00 pm)
Wind Gust32.2 mph (12:00 pm)
Weather ElementAverage
Visibility17.3 mi
Wind DirectionW (275 °)

Weather ElementTotal
Precipitation---
Heating Degree Days52.2 (Base 65)
Averaged from 32 records on March 17, 2013
WEATHER CONDITIONS BREAKOUT
WIND DIRECTION BREAKOUT
WEATHER BY HOUR - MARCH 17, 2013
[ °C ]   °F
Local TimeTemperatureDewpointHumidityBarometerVisibilityWind DirectionWind SpeedGust SpeedPrecipitationEventsConditions
1:00 AM12.2 °F6.8 °F79 %29.88 in15.0 miWSW (240°)4.6 mphClear
2:00 AM9.0 °F6.0 °F81 %29.88 inNorth (350°)2.3 mph
2:00 AM12.2 °F5.0 °F73 %29.88 in15.0 miNNE (20°)2.3 mphClear
3:00 AM10.4 °F3.2 °F73 %29.88 in15.0 miNorth (360°)2.3 mphScattered Clouds
4:00 AM12.2 °F3.2 °F67 %29.89 in15.0 miNorth (350°)2.3 mphMostly Cloudy
5:00 AM12.0 °F3.0 °F54 %29.89 inNNW (340°)2.3 mph
5:00 AM12.2 °F1.4 °F62 %29.89 in15.0 miNorth (360°)4.6 mphMostly Cloudy
6:00 AM12.2 °F1.4 °F62 %29.90 in10.0 miCalmMostly Cloudy
7:00 AM12.2 °F5.0 °F73 %29.92 in15.0 miWest (260°)8.1 mphMostly Cloudy
7:16 AM12.2 °F0.0 °F3.0 miWNW (290°)9.2 mphSnowLight Snow
8:00 AM13.0 °F7.0 °F68 %29.95 inWest (280°)9.2 mph
8:00 AM12.2 °F6.8 °F79 %29.95 in6.0 miWest (270°)10.4 mphSnowLight Snow
9:00 AM14.0 °F5.0 °F67 %29.98 in12.0 miWNW (290°)12.7 mphMostly Cloudy
10:00 AM14.0 °F1.4 °F57 %30.00 in20.0 miWNW (290°)17.3 mph25.3 mphMostly Cloudy
11:00 AM14.0 °F-2.0 °F32 %30.03 inNW (310°)12.7 mph
11:00 AM15.8 °F1.4 °F53 %30.03 in25.0 miWNW (290°)13.8 mph20.7 mphMostly Cloudy
12:00 PM15.8 °F3.2 °F58 %30.06 in20.0 miWest (270°)19.6 mph32.2 mphMostly Cloudy
1:00 PM15.8 °F1.4 °F53 %30.08 in25.0 miWNW (290°)18.4 mph25.3 mphMostly Cloudy
2:00 PM15.0 °F-2.0 °F30 %30.09 inWNW (290°)19.6 mph
2:00 PM15.8 °F-0.4 °F49 %30.09 in20.0 miWNW (290°)12.7 mph29.9 mphMostly Cloudy
3:00 PM17.6 °F-0.4 °F45 %30.11 in25.0 miWest (280°)19.6 mph25.3 mphMostly Cloudy
4:00 PM17.6 °F-2.2 °F42 %30.14 in25.0 miWNW (300°)12.7 mph21.9 mphMostly Cloudy
5:00 PM17.0 °F-6.0 °F21 %30.15 inWNW (290°)15.0 mph
5:00 PM17.6 °F-5.8 °F35 %30.15 in25.0 miNW (310°)19.6 mphScattered Clouds
6:00 PM17.6 °F-5.8 °F35 %30.18 in25.0 miWNW (300°)15.0 mph23.0 mphPartly Cloudy
7:00 PM15.8 °F-9.4 °F32 %30.22 in25.0 miWNW (290°)16.1 mph21.9 mphPartly Cloudy
8:00 PM13.0 °F-5.0 °F28 %30.25 inWest (280°)8.1 mph
8:00 PM14.0 °F-7.6 °F38 %30.25 in15.0 miWNW (290°)8.1 mphClear
9:00 PM12.2 °F-7.6 °F41 %30.28 in15.0 miNW (310°)5.8 mphClear
10:00 PM12.2 °F-9.4 °F38 %30.30 in15.0 miWSW (240°)3.5 mphClear
11:00 PM8.0 °F-6.0 °F38 %30.32 inWSW (240°)3.5 mph
11:00 PM10.4 °F-11.2 °F37 %30.32 in15.0 miSW (230°)6.9 mphClear
Hourly data recorded from CYQB, located miles away from Quebec City, Quebec







STORIES FROM OUR PARTNERS